Tracking 30995 objects as of 5-Jul-2025
HD Live streaming from Space Station
objects crossing your sky now

COSMOS 1275 DEB

Track COSMOS 1275 DEB now!
10-day predictions


NORAD ID: 42212
Int'l Code: 1981-053UC
Perigee: 918.2 km
Apogee: 1,139.7 km
Inclination: 83.1 °
Period: 105.6 minutes
Semi major axis: 7399 km
RCS: Unknown
Launch date: June 4, 1981
Source: Commonwealth of Independent States (former USSR) (CIS)
Launch site: PLESETSK MISSILE AND SPACE COMPLEX (PKMTR)

Note: This is SATELLITE DEBRIS
Your satellite tracking list
Your tracking list is empty




NASA's NSSDC Master Catalog

Two Line Element Set (TLE):
1 42212U 81053UC  25185.92985039  .00000831  00000-0  95309-3 0  9995
2 42212  83.0501  34.5965 0149704 152.4467 275.3561 13.63830450576657
Source of the keplerian elements: AFSPC